| time (UTC) | temp F | wind direction | speed MPH | gust MPH | rain 1hr in | rain 24hr in | rain mn in | humidity % | barometer mb |
| 20260903132504 | 81 | 204 | 1.0 | 6.0 | 0.00 | 0.03 | 0.00 | 87 | 1014.5 |
| 20260903132004 | 80 | 200 | 1.0 | 7.0 | 0.00 | 0.03 | 0.00 | 87 | 1014.5 |
| 20260903131504 | 80 | 194 | 1.0 | 7.0 | 0.00 | 0.03 | 0.00 | 87 | 1014.5 |
| 20260903130504 | 80 | 196 | 1.0 | 5.0 | 0.00 | 0.03 | 0.00 | 88 | 1014.4 |
| 20260903130004 | 80 | 193 | 1.0 | 5.0 | 0.00 | 0.03 | 0.00 | 88 | 1014.5 |
| 20260903125504 | 80 | 192 | 1.0 | 5.0 | 0.00 | 0.03 | 0.00 | 88 | 1014.4 |
| 20260903125004 | 79 | 197 | 1.0 | 5.0 | 0.00 | 0.03 | 0.00 | 88 | 1014.4 |
| 20260903124503 | 79 | 203 | 1.0 | 4.0 | 0.00 | 0.03 | 0.00 | 89 | 1014.4 |
| 20260903124004 | 79 | 198 | 1.0 | 4.0 | 0.00 | 0.03 | 0.00 | 89 | 1014.2 |
| 20260903123504 | 79 | 194 | 1.0 | 3.0 | 0.00 | 0.03 | 0.00 | 89 | 1014.2 |
| 20260903123004 | 79 | 0 | 0.0 | 3.0 | 0.00 | 0.03 | 0.00 | 89 | 1014.2 |
| 20260903122504 | 79 | 0 | 0.0 | 5.0 | 0.00 | 0.03 | 0.00 | 89 | 1014.2 |
| 20260903121504 | 79 | 0 | 0.0 | 6.0 | 0.00 | 0.03 | 0.00 | 89 | 1014.1 |
| 20260903121004 | 79 | 0 | 0.0 | 4.0 | 0.00 | 0.03 | 0.00 | 89 | 1014.1 |
| 20260903120503 | 79 | 0 | 0.0 | 4.0 | 0.00 | 0.03 | 0.00 | 89 | 1014.0 |
| 20260903120004 | 79 | 0 | 0.0 | 7.0 | 0.00 | 0.03 | 0.00 | 89 | 1014.1 |
| 20260903115504 | 79 | 0 | 0.0 | 7.0 | 0.00 | 0.03 | 0.00 | 89 | 1014.1 |
| 20260903115004 | 79 | 0 | 0.0 | 5.0 | 0.00 | 0.03 | 0.00 | 89 | 1014.0 |
| 20260903114503 | 79 | 204 | 1.0 | 5.0 | 0.00 | 0.03 | 0.00 | 89 | 1014.0 |
| 20260903114004 | 79 | 212 | 1.0 | 4.0 | 0.00 | 0.03 | 0.00 | 89 | 1014.1 |
| 20260903113504 | 79 | 210 | 1.0 | 4.0 | 0.00 | 0.03 | 0.00 | 89 | 1014.0 |
| 20260903113003 | 79 | 206 | 1.0 | 6.0 | 0.00 | 0.03 | 0.00 | 89 | 1013.9 |
| 20260903112503 | 79 | 203 | 1.0 | 6.0 | 0.00 | 0.03 | 0.00 | 89 | 1013.9 |
| 20260903112004 | 79 | 201 | 1.0 | 6.0 | 0.00 | 0.03 | 0.00 | 89 | 1013.9 |
| 20260903111504 | 80 | 194 | 1.0 | 6.0 | 0.00 | 0.03 | 0.00 | 89 | 1013.9 |
| 20260903111003 | 80 | 193 | 1.0 | 6.0 | 0.00 | 0.03 | 0.00 | 89 | 1014.0 |
| 20260903110504 | 80 | 194 | 1.0 | 4.0 | 0.00 | 0.03 | 0.00 | 89 | 1013.9 |
| 20260903104504 | 80 | 224 | 1.0 | 6.0 | 0.00 | 0.03 | 0.00 | 89 | 1013.8 |
| 20260903104005 | 80 | 215 | 1.0 | 6.0 | 0.00 | 0.03 | 0.00 | 89 | 1013.6 |
| 20260903103504 | 79 | 201 | 1.0 | 4.0 | 0.00 | 0.03 | 0.00 | 89 | 1013.6 |
| 20260903103003 | 79 | 0 | 0.0 | 4.0 | 0.00 | 0.03 | 0.00 | 89 | 1013.6 |
| 20260903102504 | 79 | 198 | 1.0 | 5.0 | 0.00 | 0.03 | 0.00 | 89 | 1013.6 |
| 20260903102004 | 79 | 194 | 1.0 | 5.0 | 0.00 | 0.03 | 0.00 | 89 | 1013.7 |
| 20260903101504 | 79 | 184 | 1.0 | 4.0 | 0.00 | 0.03 | 0.00 | 89 | 1013.5 |
| 20260903101003 | 79 | 194 | 1.0 | 6.0 | 0.00 | 0.03 | 0.00 | 88 | 1013.5 |
| 20260903100004 | 79 | 240 | 1.0 | 6.0 | 0.00 | 0.03 | 0.00 | 88 | 1013.6 |
| 20260903095504 | 79 | 221 | 1.0 | 6.0 | 0.00 | 0.03 | 0.00 | 88 | 1013.6 |
| 20260903095003 | 79 | 200 | 1.0 | 5.0 | 0.00 | 0.03 | 0.00 | 88 | 1013.6 |
| 20260903094504 | 79 | 198 | 1.0 | 4.0 | 0.00 | 0.03 | 0.00 | 88 | 1013.7 |
| 20260903094004 | 80 | 209 | 1.0 | 5.0 | 0.00 | 0.03 | 0.00 | 88 | 1013.8 |
| 20260903093004 | 80 | 205 | 1.0 | 4.0 | 0.00 | 0.03 | 0.00 | 88 | 1013.8 |
| 20260903092504 | 80 | 215 | 1.0 | 4.0 | 0.00 | 0.03 | 0.00 | 88 | 1013.8 |
| 20260903092004 | 80 | 218 | 1.0 | 5.0 | 0.00 | 0.03 | 0.00 | 87 | 1013.8 |
| 20260903091503 | 80 | 195 | 1.0 | 5.0 | 0.00 | 0.03 | 0.00 | 87 | 1013.9 |
| 20260903091004 | 80 | 190 | 1.0 | 4.0 | 0.00 | 0.03 | 0.00 | 87 | 1014.0 |
| 20260903090504 | 80 | 193 | 1.0 | 6.0 | 0.00 | 0.03 | 0.00 | 87 | 1013.9 |
| 20260903090004 | 80 | 200 | 1.0 | 6.0 | 0.00 | 0.03 | 0.00 | 87 | 1014.0 |
| 20260903085004 | 80 | 192 | 1.0 | 5.0 | 0.00 | 0.03 | 0.00 | 87 | 1014.0 |
| 20260903084004 | 80 | 187 | 2.0 | 6.0 | 0.00 | 0.03 | 0.00 | 86 | 1014.0 |
| 20260903083503 | 80 | 201 | 1.0 | 5.0 | 0.00 | 0.03 | 0.00 | 86 | 1014.0 |
| 20260903083004 | 80 | 224 | 1.0 | 7.0 | 0.00 | 0.03 | 0.00 | 86 | 1014.1 |
| 20260903082504 | 80 | 224 | 1.0 | 7.0 | 0.00 | 0.03 | 0.00 | 86 | 1013.9 |
| 20260903082004 | 80 | 217 | 1.0 | 7.0 | 0.00 | 0.03 | 0.00 | 86 | 1013.9 |
| 20260903081503 | 80 | 214 | 2.0 | 7.0 | 0.00 | 0.03 | 0.00 | 86 | 1013.9 |
| 20260903080504 | 80 | 189 | 1.0 | 5.0 | 0.00 | 0.03 | 0.00 | 85 | 1013.9 |
| 20260903075503 | 80 | 175 | 1.0 | 4.0 | 0.00 | 0.03 | 0.00 | 85 | 1013.9 |
| 20260903075004 | 80 | 183 | 1.0 | 4.0 | 0.00 | 0.03 | 0.00 | 85 | 1014.0 |
| 20260903074504 | 80 | 211 | 1.0 | 4.0 | 0.00 | 0.03 | 0.00 | 84 | 1014.0 |
| 20260903073503 | 81 | 235 | 1.0 | 8.0 | 0.00 | 0.03 | 0.00 | 84 | 1014.0 |
| 20260903073004 | 81 | 210 | 1.0 | 7.0 | 0.00 | 0.03 | 0.00 | 83 | 1014.1 |
| 20260903072504 | 81 | 197 | 1.0 | 5.0 | 0.00 | 0.03 | 0.00 | 83 | 1014.1 |
| 20260903072003 | 81 | 194 | 1.0 | 4.0 | 0.00 | 0.03 | 0.00 | 82 | 1014.1 |
| 20260903071004 | 81 | 208 | 1.0 | 8.0 | 0.00 | 0.03 | 0.00 | 81 | 1014.2 |
| 20260903070504 | 81 | 217 | 1.0 | 8.0 | 0.00 | 0.03 | 0.00 | 81 | 1014.2 |
| 20260903070004 | 81 | 209 | 1.0 | 6.0 | 0.00 | 0.03 | 0.00 | 81 | 1014.1 |
| 20260903065004 | 82 | 223 | 1.0 | 7.0 | 0.00 | 0.03 | 0.00 | 80 | 1014.2 |
| 20260903064504 | 82 | 219 | 1.0 | 7.0 | 0.00 | 0.03 | 0.00 | 79 | 1014.3 |
| 20260903064003 | 82 | 208 | 1.0 | 6.0 | 0.00 | 0.03 | 0.00 | 79 | 1014.2 |
| 20260903063503 | 82 | 221 | 1.0 | 6.0 | 0.00 | 0.03 | 0.00 | 78 | 1014.3 |
| 20260903063004 | 82 | 246 | 1.0 | 5.0 | 0.00 | 0.03 | 0.00 | 78 | 1014.4 |
| 20260903062529 | 82 | 242 | 1.0 | 7.0 | 0.00 | 0.03 | 0.00 | 78 | 1014.4 |
| 20260903062004 | 82 | 230 | 1.0 | 7.0 | 0.00 | 0.03 | 0.00 | 77 | 1014.4 |
| 20260903061504 | 82 | 226 | 1.0 | 5.0 | 0.00 | 0.03 | 0.00 | 77 | 1014.4 |
| 20260903061003 | 82 | 233 | 1.0 | 5.0 | 0.00 | 0.03 | 0.00 | 77 | 1014.4 |
| 20260903060504 | 82 | 220 | 1.0 | 7.0 | 0.00 | 0.03 | 0.00 | 76 | 1014.4 |
| 20260903054504 | 82 | 149 | 1.0 | 5.0 | 0.00 | 0.03 | 0.00 | 77 | 1014.2 |
| 20260903054004 | 81 | 146 | 1.0 | 3.0 | 0.00 | 0.03 | 0.00 | 78 | 1014.1 |
| 20260903053504 | 81 | 135 | 1.0 | 4.0 | 0.00 | 0.03 | 0.00 | 78 | 1014.0 |
| 20260903053003 | 81 | 116 | 1.0 | 4.0 | 0.00 | 0.03 | 0.00 | 79 | 1014.1 |
| 20260903052504 | 80 | 99 | 1.0 | 6.0 | 0.00 | 0.03 | 0.00 | 80 | 1014.1 |
| 20260903051503 | 80 | 106 | 1.0 | 4.0 | 0.00 | 0.03 | 0.00 | 82 | 1014.2 |
| 20260903051004 | 79 | 0 | 0.0 | 4.0 | 0.00 | 0.03 | 0.00 | 83 | 1014.2 |
| 20260903050504 | 79 | 0 | 0.0 | 2.0 | 0.00 | 0.03 | 0.00 | 83 | 1014.2 |
| 20260903045504 | 79 | 0 | 0.0 | 1.0 | 0.00 | 0.03 | 0.03 | 83 | 1014.2 |
| 20260903045003 | 79 | 0 | 0.0 | 2.0 | 0.00 | 0.03 | 0.03 | 83 | 1014.2 |
| 20260903044004 | 80 | 0 | 0.0 | 3.0 | 0.00 | 0.03 | 0.03 | 82 | 1014.1 |
| 20260903043504 | 80 | 0 | 0.0 | 4.0 | 0.00 | 0.03 | 0.03 | 82 | 1014.2 |
| 20260903043003 | 80 | 0 | 0.0 | 4.0 | 0.00 | 0.03 | 0.03 | 81 | 1014.1 |
| 20260903042503 | 80 | 0 | 0.0 | 2.0 | 0.00 | 0.03 | 0.03 | 80 | 1014.1 |
| 20260903042004 | 80 | 0 | 0.0 | 4.0 | 0.00 | 0.03 | 0.03 | 80 | 1014.1 |
| 20260903041504 | 81 | 97 | 1.0 | 6.0 | 0.00 | 0.03 | 0.03 | 79 | 1014.1 |
| 20260903041003 | 81 | 91 | 1.0 | 6.0 | 0.00 | 0.03 | 0.03 | 79 | 1014.2 |
| 20260903040503 | 81 | 61 | 1.0 | 7.0 | 0.00 | 0.03 | 0.03 | 78 | 1014.2 |
| 20260903040004 | 81 | 53 | 1.0 | 7.0 | 0.00 | 0.03 | 0.03 | 77 | 1014.2 |
| 20260903035503 | 81 | 49 | 1.0 | 4.0 | 0.00 | 0.03 | 0.03 | 77 | 1014.2 |
| 20260903035004 | 82 | 82 | 2.0 | 5.0 | 0.00 | 0.03 | 0.03 | 76 | 1014.2 |
| 20260903034504 | 82 | 105 | 2.0 | 7.0 | 0.00 | 0.03 | 0.03 | 75 | 1014.2 |
| 20260903033004 | 84 | 95 | 3.0 | 9.0 | 0.00 | 0.03 | 0.03 | 71 | 1014.3 |
| 20260903032504 | 84 | 103 | 2.0 | 9.0 | 0.00 | 0.03 | 0.03 | 71 | 1014.2 |
| 20260903032003 | 84 | 113 | 1.0 | 4.0 | 0.00 | 0.03 | 0.03 | 72 | 1014.1 |
| 20260903031503 | 84 | 116 | 1.0 | 7.0 | 0.00 | 0.03 | 0.03 | 71 | 1014.0 |
| 20260903031004 | 84 | 120 | 1.0 | 7.0 | 0.00 | 0.03 | 0.03 | 71 | 1013.7 |
| 20260903025004 | 85 | 0 | 0.0 | 2.0 | 0.00 | 0.03 | 0.03 | 73 | 1013.4 |
| 20260903024504 | 85 | 0 | 0.0 | 0.0 | 0.00 | 0.03 | 0.03 | 74 | 1013.2 |
| 20260903024003 | 85 | 0 | 0.0 | 0.0 | 0.00 | 0.03 | 0.03 | 73 | 1013.0 |
| 20260903023503 | 85 | 0 | 0.0 | 0.0 | 0.00 | 0.03 | 0.03 | 72 | 1012.9 |
| 20260903023004 | 85 | 0 | 0.0 | 0.0 | 0.00 | 0.03 | 0.03 | 72 | 1012.9 |
| 20260903022504 | 85 | 0 | 0.0 | 0.0 | 0.00 | 0.03 | 0.03 | 71 | 1012.8 |
| 20260903022004 | 85 | 0 | 0.0 | 0.0 | 0.00 | 0.03 | 0.03 | 71 | 1012.6 |
| 20260903021503 | 85 | 0 | 0.0 | 0.0 | 0.00 | 0.03 | 0.03 | 71 | 1012.6 |
| 20260903021004 | 85 | 0 | 0.0 | 0.0 | 0.00 | 0.03 | 0.03 | 71 | 1012.5 |
| 20260903020504 | 85 | 0 | 0.0 | 0.0 | 0.00 | 0.03 | 0.03 | 71 | 1012.4 |
| 20260903020003 | 85 | 0 | 0.0 | 0.0 | 0.00 | 0.03 | 0.03 | 71 | 1012.2 |
| 20260903015503 | 86 | 0 | 0.0 | 0.0 | 0.00 | 0.03 | 0.03 | 71 | 1012.2 |
| 20260903015004 | 86 | 0 | 0.0 | 2.0 | 0.00 | 0.03 | 0.03 | 71 | 1012.1 |
| 20260903014504 | 86 | 0 | 0.0 | 2.0 | 0.00 | 0.03 | 0.03 | 70 | 1012.1 |
| 20260903014003 | 86 | 0 | 0.0 | 2.0 | 0.00 | 0.03 | 0.03 | 70 | 1012.1 |
| 20260903013504 | 86 | 0 | 0.0 | 1.0 | 0.00 | 0.03 | 0.03 | 70 | 1012.0 |
| 20260903013004 | 86 | 0 | 0.0 | 1.0 | 0.00 | 0.03 | 0.03 | 69 | 1012.0 |
| 20260903012504 | 87 | 0 | 0.0 | 1.0 | 0.00 | 0.03 | 0.03 | 68 | 1012.0 |
| 20260903012003 | 87 | 0 | 0.0 | 1.0 | 0.00 | 0.03 | 0.03 | 69 | 1012.1 |
| 20260903011504 | 87 | 0 | 0.0 | 1.0 | 0.00 | 0.03 | 0.03 | 69 | 1012.1 |
| 20260903011004 | 87 | 0 | 0.0 | 3.0 | 0.00 | 0.03 | 0.03 | 67 | 1012.0 |
| 20260903010503 | 87 | 0 | 0.0 | 3.0 | 0.00 | 0.03 | 0.03 | 66 | 1011.9 |
| 20260903010004 | 87 | 0 | 0.0 | 0.0 | 0.00 | 0.03 | 0.03 | 68 | 1012.0 |
| 20260903005504 | 87 | 0 | 0.0 | 0.0 | 0.00 | 0.03 | 0.03 | 67 | 1012.0 |
| 20260903005004 | 87 | 0 | 0.0 | 0.0 | 0.00 | 0.03 | 0.03 | 66 | 1012.0 |
| 20260903004504 | 86 | 0 | 0.0 | 0.0 | 0.00 | 0.03 | 0.03 | 67 | 1012.0 |
| 20260903004004 | 86 | 0 | 0.0 | 0.0 | 0.00 | 0.03 | 0.03 | 68 | 1011.9 |
| 20260903003504 | 86 | 0 | 0.0 | 1.0 | 0.00 | 0.03 | 0.03 | 69 | 1012.0 |
| 20260903003004 | 86 | 0 | 0.0 | 2.0 | 0.00 | 0.03 | 0.03 | 68 | 1012.0 |
| 20260903002503 | 86 | 0 | 0.0 | 2.0 | 0.02 | 0.03 | 0.03 | 69 | 1012.0 |
| 20260903002004 | 86 | 125 | 1.0 | 3.0 | 0.03 | 0.03 | 0.03 | 69 | 1012.0 |
| 20260903001504 | 86 | 125 | 1.0 | 4.0 | 0.03 | 0.03 | 0.03 | 69 | 1012.0 |
| 20260903001003 | 85 | 126 | 1.0 | 7.0 | 0.03 | 0.03 | 0.03 | 71 | 1012.0 |
| 20260903000503 | 85 | 123 | 1.0 | 7.0 | 0.03 | 0.03 | 0.03 | 71 | 1012.0 |
| 20260903000004 | 85 | 118 | 1.0 | 3.0 | 0.03 | 0.03 | 0.03 | 73 | 1012.0 |
| 20260902235504 | 85 | 118 | 1.0 | 7.0 | 0.03 | 0.03 | 0.03 | 72 | 1012.0 |
| 20260902235003 | 86 | 110 | 2.0 | 8.0 | 0.03 | 0.03 | 0.03 | 70 | 1012.1 |
| 20260902234504 | 87 | 97 | 2.0 | 8.0 | 0.03 | 0.03 | 0.03 | 69 | 1012.3 |
| 20260902234004 | 89 | 91 | 3.0 | 7.0 | 0.03 | 0.03 | 0.03 | 63 | 1012.2 |
| 20260902233504 | 91 | 99 | 2.0 | 6.0 | 0.03 | 0.03 | 0.03 | 58 | 1012.1 |
| 20260902233003 | 95 | 125 | 1.0 | 3.0 | 0.02 | 0.02 | 0.02 | 56 | 1012.0 |
| 20260902232504 | 99 | 156 | 1.0 | 3.0 | 0.01 | 0.01 | 0.01 | 50 | 1012.1 |
| 20260902232004 | 100 | 179 | 1.0 | 3.0 | 0.00 | 0.00 | 0.00 | 41 | 1011.9 |
| 20260902231503 | 100 | 0 | 0.0 | 2.0 | 0.00 | 0.00 | 0.00 | 39 | 1011.8 |
| 20260902230504 | 101 | 181 | 1.0 | 4.0 | 0.00 | 0.00 | 0.00 | 40 | 1011.6 |
| 20260902225504 | 101 | 183 | 1.0 | 4.0 | 0.00 | 0.00 | 0.00 | 39 | 1011.6 |
| 20260902225003 | 101 | 175 | 1.0 | 6.0 | 0.00 | 0.00 | 0.00 | 40 | 1011.6 |
| 20260902223003 | 102 | 164 | 1.0 | 4.0 | 0.00 | 0.00 | 0.00 | 39 | 1011.7 |
| 20260902222004 | 103 | 162 | 1.0 | 5.0 | 0.00 | 0.00 | 0.00 | 38 | 1011.8 |
| 20260902221504 | 103 | 163 | 1.0 | 4.0 | 0.00 | 0.00 | 0.00 | 39 | 1011.8 |
| 20260902220504 | 103 | 179 | 1.0 | 7.0 | 0.00 | 0.00 | 0.00 | 36 | 1011.9 |
| 20260902220004 | 103 | 183 | 1.0 | 4.0 | 0.00 | 0.00 | 0.00 | 38 | 1011.9 |
| 20260902215503 | 103 | 182 | 1.0 | 3.0 | 0.00 | 0.00 | 0.00 | 38 | 1011.9 |
| 20260902215003 | 103 | 182 | 1.0 | 3.0 | 0.00 | 0.00 | 0.00 | 36 | 1011.9 |
| 20260902214504 | 103 | 183 | 1.0 | 4.0 | 0.00 | 0.00 | 0.00 | 36 | 1012.0 |
| 20260902214004 | 102 | 184 | 1.0 | 4.0 | 0.00 | 0.00 | 0.00 | 37 | 1012.0 |
| 20260902213503 | 102 | 184 | 1.0 | 3.0 | 0.00 | 0.00 | 0.00 | 38 | 1012.1 |
| 20260902213004 | 102 | 182 | 1.0 | 4.0 | 0.00 | 0.00 | 0.00 | 38 | 1012.1 |
| 20260902212504 | 102 | 181 | 1.0 | 4.0 | 0.00 | 0.00 | 0.00 | 38 | 1012.2 |
| 20260902212003 | 101 | 178 | 1.0 | 4.0 | 0.00 | 0.00 | 0.00 | 38 | 1012.1 |
| 20260902211504 | 101 | 0 | 0.0 | 4.0 | 0.00 | 0.00 | 0.00 | 38 | 1012.1 |
| 20260902211004 | 102 | 0 | 0.0 | 6.0 | 0.00 | 0.00 | 0.00 | 37 | 1012.2 |
| 20260902210003 | 102 | 145 | 1.0 | 4.0 | 0.00 | 0.00 | 0.00 | 38 | 1012.4 |
| 20260902205003 | 102 | 139 | 1.0 | 4.0 | 0.00 | 0.00 | 0.00 | 39 | 1012.5 |
| 20260902204504 | 101 | 124 | 1.0 | 4.0 | 0.00 | 0.00 | 0.00 | 40 | 1012.6 |
| 20260902204003 | 101 | 109 | 1.0 | 3.0 | 0.00 | 0.00 | 0.00 | 40 | 1012.7 |
| 20260902203003 | 102 | 87 | 1.0 | 3.0 | 0.00 | 0.00 | 0.00 | 40 | 1012.8 |
| 20260902202504 | 103 | 84 | 1.0 | 3.0 | 0.00 | 0.00 | 0.00 | 38 | 1012.8 |
| 20260902202004 | 103 | 85 | 1.0 | 2.0 | 0.00 | 0.00 | 0.00 | 39 | 1012.9 |
| 20260902201503 | 102 | 84 | 1.0 | 7.0 | 0.00 | 0.00 | 0.00 | 40 | 1012.9 |
| 20260902201003 | 101 | 88 | 1.0 | 7.0 | 0.00 | 0.00 | 0.00 | 41 | 1013.0 |
| 20260902200504 | 100 | 94 | 1.0 | 3.0 | 0.00 | 0.00 | 0.00 | 40 | 1013.1 |
| 20260902200004 | 100 | 0 | 0.0 | 1.0 | 0.00 | 0.00 | 0.00 | 40 | 1013.2 |
| 20260902195503 | 101 | 0 | 0.0 | 2.0 | 0.00 | 0.00 | 0.00 | 40 | 1013.3 |
| 20260902195004 | 101 | 0 | 0.0 | 2.0 | 0.00 | 0.00 | 0.00 | 40 | 1013.4 |
| 20260902194003 | 100 | 0 | 0.0 | 2.0 | 0.00 | 0.00 | 0.00 | 41 | 1013.6 |
| 20260902193503 | 100 | 96 | 1.0 | 5.0 | 0.00 | 0.00 | 0.00 | 42 | 1013.6 |
| 20260902193004 | 99 | 96 | 1.0 | 5.0 | 0.00 | 0.00 | 0.00 | 43 | 1013.6 |
| 20260902192503 | 99 | 96 | 1.0 | 5.0 | 0.00 | 0.00 | 0.00 | 42 | 1013.8 |
| 20260902192004 | 99 | 87 | 1.0 | 6.0 | 0.00 | 0.00 | 0.00 | 43 | 1013.9 |
| 20260902191504 | 99 | 72 | 1.0 | 6.0 | 0.00 | 0.00 | 0.00 | 42 | 1013.9 |
| 20260902191003 | 99 | 46 | 1.0 | 5.0 | 0.00 | 0.00 | 0.00 | 41 | 1014.0 |
| 20260902190503 | 99 | 44 | 1.0 | 5.0 | 0.00 | 0.00 | 0.00 | 41 | 1014.1 |
| 20260902190004 | 99 | 39 | 1.0 | 3.0 | 0.00 | 0.00 | 0.00 | 44 | 1014.3 |
| 20260902185503 | 99 | 39 | 1.0 | 4.0 | 0.00 | 0.00 | 0.00 | 43 | 1014.3 |
| 20260902185003 | 99 | 0 | 0.0 | 4.0 | 0.00 | 0.00 | 0.00 | 43 | 1014.4 |
| 20260902184504 | 98 | 72 | 1.0 | 7.0 | 0.00 | 0.00 | 0.00 | 44 | 1014.4 |
| 20260902184003 | 99 | 105 | 2.0 | 7.0 | 0.00 | 0.00 | 0.00 | 43 | 1014.5 |
| 20260902183004 | 99 | 165 | 1.0 | 4.0 | 0.00 | 0.00 | 0.00 | 44 | 1014.8 |
| 20260902182503 | 98 | 157 | 1.0 | 4.0 | 0.00 | 0.00 | 0.00 | 45 | 1014.8 |
| 20260902182004 | 98 | 150 | 1.0 | 5.0 | 0.00 | 0.00 | 0.00 | 44 | 1015.0 |
| 20260902181504 | 98 | 148 | 1.0 | 5.0 | 0.00 | 0.00 | 0.00 | 45 | 1015.0 |
| 20260902181004 | 98 | 140 | 1.0 | 5.0 | 0.00 | 0.00 | 0.00 | 45 | 1015.1 |
| 20260902180503 | 99 | 134 | 1.0 | 5.0 | 0.00 | 0.00 | 0.00 | 45 | 1015.2 |
| 20260902175504 | 98 | 131 | 1.0 | 3.0 | 0.00 | 0.00 | 0.00 | 45 | 1015.4 |
| 20260902175003 | 98 | 131 | 1.0 | 3.0 | 0.00 | 0.00 | 0.00 | 44 | 1015.5 |
| 20260902174503 | 98 | 131 | 1.0 | 3.0 | 0.00 | 0.00 | 0.00 | 45 | 1015.7 |
| 20260902173504 | 97 | 120 | 1.0 | 3.0 | 0.00 | 0.00 | 0.00 | 49 | 1015.8 |
| 20260902173003 | 97 | 129 | 1.0 | 5.0 | 0.00 | 0.00 | 0.00 | 46 | 1015.8 |
| 20260902171504 | 96 | 173 | 1.0 | 4.0 | 0.00 | 0.00 | 0.00 | 49 | 1016.0 |
| 20260902171003 | 96 | 192 | 1.0 | 4.0 | 0.00 | 0.00 | 0.00 | 47 | 1016.1 |
| 20260902170503 | 96 | 214 | 1.0 | 4.0 | 0.00 | 0.00 | 0.00 | 50 | 1016.1 |
| 20260902170004 | 96 | 209 | 1.0 | 4.0 | 0.00 | 0.00 | 0.00 | 50 | 1016.2 |
| 20260902165003 | 96 | 207 | 1.0 | 4.0 | 0.00 | 0.00 | 0.00 | 51 | 1016.3 |
| 20260902164504 | 95 | 207 | 1.0 | 4.0 | 0.00 | 0.00 | 0.00 | 51 | 1016.4 |
| 20260902164003 | 95 | 204 | 1.0 | 5.0 | 0.00 | 0.00 | 0.00 | 51 | 1016.5 |
| 20260902163503 | 95 | 198 | 2.0 | 5.0 | 0.00 | 0.00 | 0.00 | 52 | 1016.6 |
| 20260902163004 | 94 | 197 | 1.0 | 5.0 | 0.00 | 0.00 | 0.00 | 52 | 1016.6 |
| 20260902162504 | 94 | 198 | 1.0 | 5.0 | 0.00 | 0.00 | 0.00 | 52 | 1016.5 |
| 20260902162004 | 94 | 0 | 0.0 | 4.0 | 0.00 | 0.00 | 0.00 | 53 | 1016.6 |
| 20260902161503 | 94 | 198 | 1.0 | 4.0 | 0.00 | 0.00 | 0.00 | 53 | 1016.5 |
| 20260902161004 | 93 | 198 | 1.0 | 4.0 | 0.00 | 0.00 | 0.00 | 54 | 1016.5 |
| 20260902160503 | 93 | 198 | 1.0 | 4.0 | 0.00 | 0.00 | 0.00 | 54 | 1016.5 |
| 20260902160003 | 92 | 198 | 1.0 | 4.0 | 0.00 | 0.00 | 0.00 | 55 | 1016.5 |
| 20260902155504 | 92 | 196 | 1.0 | 4.0 | 0.00 | 0.00 | 0.00 | 54 | 1016.6 |
| 20260902154503 | 92 | 194 | 1.0 | 5.0 | 0.00 | 0.00 | 0.00 | 56 | 1016.6 |
| 20260902154003 | 92 | 194 | 1.0 | 5.0 | 0.00 | 0.00 | 0.00 | 56 | 1016.7 |
| 20260902153504 | 91 | 194 | 1.0 | 7.0 | 0.00 | 0.00 | 0.00 | 58 | 1016.7 |
| 20260902153003 | 91 | 194 | 1.0 | 7.0 | 0.00 | 0.00 | 0.00 | 58 | 1016.7 |
| 20260902152503 | 90 | 194 | 1.0 | 4.0 | 0.00 | 0.00 | 0.00 | 58 | 1016.6 |
| 20260902152004 | 90 | 194 | 1.0 | 4.0 | 0.00 | 0.00 | 0.00 | 60 | 1016.6 |
| 20260902151504 | 90 | 194 | 1.0 | 4.0 | 0.00 | 0.00 | 0.00 | 59 | 1016.7 |
| 20260902150504 | 89 | 206 | 2.0 | 5.0 | 0.00 | 0.00 | 0.00 | 62 | 1016.6 |
| 20260902150004 | 89 | 196 | 1.0 | 6.0 | 0.00 | 0.00 | 0.00 | 61 | 1016.5 |
| 20260902145003 | 88 | 182 | 2.0 | 5.0 | 0.00 | 0.00 | 0.00 | 64 | 1016.5 |
| 20260902144504 | 87 | 179 | 2.0 | 5.0 | 0.00 | 0.00 | 0.00 | 63 | 1016.5 |
| 20260902144004 | 87 | 179 | 1.0 | 4.0 | 0.00 | 0.00 | 0.00 | 66 | 1016.6 |
| 20260902143503 | 87 | 179 | 1.0 | 5.0 | 0.00 | 0.00 | 0.00 | 68 | 1016.6 |
| 20260902143004 | 86 | 181 | 1.0 | 5.0 | 0.00 | 0.00 | 0.00 | 69 | 1016.7 |
| 20260902142503 | 85 | 184 | 1.0 | 2.0 | 0.00 | 0.00 | 0.00 | 70 | 1016.6 |
| 20260902142003 | 85 | 183 | 1.0 | 4.0 | 0.00 | 0.00 | 0.00 | 70 | 1016.6 |
| 20260902141004 | 84 | 117 | 2.0 | 19.0 | 0.00 | 0.00 | 0.00 | 71 | 1016.5 |
| 20260902140503 | 84 | 112 | 1.0 | 19.0 | 0.00 | 0.00 | 0.00 | 70 | 1016.6 |
| 20260902140003 | 84 | 0 | 0.0 | 5.0 | 0.00 | 0.00 | 0.00 | 72 | 1016.6 |
| 20260902135503 | 83 | 0 | 0.0 | 0.0 | 0.00 | 0.00 | 0.00 | 72 | 1016.6 |
| 20260902135004 | 83 | 0 | 0.0 | 0.0 | 0.00 | 0.00 | 0.00 | 74 | 1016.6 |
| 20260902134504 | 82 | 0 | 0.0 | 0.0 | 0.00 | 0.00 | 0.00 | 75 | 1016.5 |
| 20260902134003 | 81 | 0 | 0.0 | 0.0 | 0.00 | 0.00 | 0.00 | 77 | 1016.5 |
| 20260902133503 | 80 | 0 | 0.0 | 0.0 | 0.00 | 0.00 | 0.00 | 79 | 1016.4 |